[[{"header":{"parameterUnit":"m.s-1","parameterCategory":1,"la1":30.2991,"la2":30.254,"lo1":-89.0895,"lo2":-89.0444,"dy":0.0017,"dx":0.0017,"nx":28,"ny":28,"refTime":"2025-03-28T09:00:00:Z","depth":0,"parameterNumber":2,"parameterNumberName":"U-component_of_WINDS"},"data":[0,0,0,0,0,0,0,0,0,0,0,0,0,0,0,0,0,0,0,0,0,0,0,0,0,0,0,0,0,0,0,0,0,0,0,0,0,0,0,0,0,0,0,0,0,0,0,0,0,0,0,0,0,0,0,0,0,0,-2.7167,-2.7169,0,-2.7376,-2.7379,-2.7381,-2.7471,-2.747,-2.747,-2.747,-2.7684,-2.7689,-2.7695,0,0,0,0,0,0,0,0,0,0,0,0,0,-2.6844,-2.6849,-2.7166,-2.7169,-2.7172,-2.7376,-2.7379,-2.7381,-2.7471,-2.747,-2.747,-2.747,-2.7682,-2.7689,-2.7696,0,0,0,0,0,0,0,0,0,0,0,0,0,-2.7011,-2.6851,-2.7166,-2.7241,-2.725,-2.7375,-2.7379,-2.7382,-2.7471,-2.747,-2.747,-2.7469,-2.7679,-2.7688,-2.7697,-2.7763,0,0,-2.7724,-2.7728,0,0,0,0,0,0,0,0,-2.7002,-2.7023,-2.7227,-2.7236,-2.7246,-2.7397,-2.7343,-2.751,-2.7471,-2.7387,-2.747,-2.7469,-2.7588,-2.7605,-2.7645,-2.7773,-2.7782,-2.7725,-2.7731,-2.7735,-2.7737,0,0,0,0,0,0,0,-2.699,-2.7015,-2.7249,-2.723,-2.7242,-2.7264,-2.7287,-2.7375,-2.7488,-2.7394,-2.7401,-2.7425,-2.7593,-2.7636,-2.7651,-2.7786,-2.7725,-2.7733,-2.7739,-2.7742,-2.798,-2.798,0,0,0,0,0,0,-2.6966,-2.7004,-2.7243,-2.7256,-2.712,-2.727,-2.7296,-2.7349,-2.7487,-2.7508,-2.7425,-2.7428,-2.7621,-2.764,-2.7659,-2.7747,-2.7735,-2.7743,-2.7748,-2.7979,-2.798,-2.7981,0,0,0,0,0,0,-2.6959,-2.6987,-2.7234,-2.7132,-2.7165,-2.7276,-2.7335,-2.7353,-2.7396,-2.7511,-2.7531,-2.7448,-2.7622,-2.7646,-2.7737,-2.7755,-2.7747,-2.7755,-2.7978,-2.7979,-2.798,-2.7921,0,0,0,0,0,0,-2.6949,-2.6983,-2.701,-2.7132,-2.717,-2.7309,-2.7336,-2.7358,-2.7412,-2.7418,-2.7538,-2.7557,-2.7623,-2.7723,-2.7746,-2.7767,-2.7762,-2.7977,-2.7978,-2.798,-2.7922,-2.792,-2.7919,0,0,0,0,0,-2.6937,-2.6984,-2.7011,-2.7039,-2.7206,-2.7309,-2.7331,-2.7406,-2.7413,-2.744,-2.7514,-2.7553,-2.7749,-2.7731,-2.7758,-2.7782,-2.7976,-2.7978,-2.798,-2.7923,-2.7921,-2.7919,0,0,0,0,0,0,-2.6861,-2.7002,-2.7032,-2.712,-2.7202,-2.7324,-2.7361,-2.7402,-2.7483,-2.7486,-2.7575,-2.7602,-2.7685,-2.7743,-2.772,-2.7855,-2.7866,-2.7873,-2.7813,-2.7813,-2.7811,-2.7795,-2.777,0,0,0,0,0,-2.6854,-2.6927,-2.7046,-2.7112,-2.7152,-2.7249,-2.7297,-2.7348,-2.7436,-2.7471,-2.7552,-2.7636,-2.7717,-2.7768,-2.7848,-2.7931,-2.7959,-2.7961,-2.7959,-2.7958,-2.7963,-2.8012,-2.8014,-2.7987,-2.7987,-2.7987,0,0,-2.6841,-2.6927,-2.6968,-2.7099,-2.7169,-2.7242,-2.7278,-2.7354,-2.7409,-2.7483,-2.7574,-2.7635,-2.7735,-2.7822,-2.7865,-2.7874,-2.7977,-2.796,-2.7958,-2.7964,-2.8014,-2.8016,-2.8018,-2.7989,-2.7988,-2.7988,0,0,-2.6855,-2.6927,-2.6991,-2.706,-2.7165,-2.7229,-2.7244,-2.7361,-2.7405,-2.7498,-2.7555,-2.7622,-2.7759,-2.7828,-2.7881,-2.7922,-2.7961,-2.7945,-2.7937,-2.7984,-2.7986,-2.7988,-2.8003,-2.8007,-2.795,-2.795,-2.795,0,-2.6826,-2.6939,-2.7018,-2.7091,-2.7148,-2.7218,-2.7283,-2.7347,-2.7472,-2.7509,-2.7517,-2.7691,-2.7764,-2.7868,-2.7878,-2.7919,-2.7939,-2.7932,-2.7979,-2.7982,-2.7986,-2.8001,-2.8006,-2.7948,-2.7948,-2.7948,-2.7948,0,-2.6898,-2.6975,-2.7013,-2.7133,-2.7194,-2.7262,-2.7352,-2.7404,-2.745,-2.7514,-2.7607,-2.7697,-2.7797,-2.7825,-2.787,-2.7937,-2.7939,-2.7962,-2.7975,-2.7984,-2.8,-2.8006,-2.7944,-2.7945,-2.7946,-2.7946,0,0,-2.6869,-2.7032,-2.7045,-2.7101,-2.7222,-2.7283,-2.7355,-2.7454,-2.7496,-2.7581,-2.7643,-2.7758,-2.778,-2.784,-2.7894,-2.7935,-2.7962,-2.7953,-2.7957,-2.7952,-2.8041,-2.8023,-2.8028,-2.7989,-2.799,-2.7992,-2.8033,0,-2.6899,-2.7031,-2.7105,-2.7206,-2.7279,-2.7348,-2.7411,-2.7492,-2.7553,-2.7624,-2.7692,-2.7772,-2.7795,-2.7832,-2.7876,-2.7949,-2.7981,-2.7947,-2.8048,-2.8051,-2.8021,-2.8037,-2.8018,-2.8052,-2.8039,-2.804,-2.8041,0,-2.6953,-2.7036,-2.7144,-2.7258,-2.7291,-2.7346,-2.7443,-2.7509,-2.7603,-2.7645,-2.7712,-2.7766,-2.7845,-2.7852,-2.7962,-2.7937,-2.7983,-2.8025,-2.8029,-2.8041,-2.8046,-2.8049,-2.8065,-2.807,-2.8052,-2.8051,-2.805,0,-2.6921,-2.706,-2.7144,-2.7189,-2.7323,-2.7361,-2.7418,-2.7512,-2.7566,-2.765,-2.7687,-2.7779,-2.7829,-2.7899,-2.7976,-2.7974,-2.8079,-2.8092,-2.8116,-2.8114,-2.8135,-2.8133,-2.8158,-2.8164,-2.8164,-2.8164,-2.8164,0,-2.6947,-2.7011,-2.7131,-2.7182,-2.7256,-2.734,-2.7411,-2.7474,-2.7557,-2.7621,-2.7686,-2.7746,-2.7844,-2.7916,-2.7976,-2.8058,-2.8081,-2.8117,-2.8132,-2.8111,-2.8107,-2.8142,-2.8142,-2.8165,-2.8165,-2.8165,-2.8164,0,-2.6924,-2.7008,-2.7103,-2.7222,-2.7254,-2.7303,-2.7406,-2.7458,-2.7523,-2.7604,-2.7628,-2.773,-2.7818,-2.7902,-2.8019,-2.806,-2.8142,-2.8163,-2.8111,-2.8119,-2.8138,-2.8135,-2.8188,-2.8199,-2.8196,-2.8196,-2.8196,0,-2.6936,-2.6987,-2.7112,-2.716,-2.7216,-2.7293,-2.7349,-2.7434,-2.749,-2.7601,-2.764,-2.7733,-2.7811,-2.7948,-2.8033,-2.8123,-2.8146,-2.8159,-2.816,-2.8138,-2.8147,-2.8143,-2.8149,-2.8156,-2.8156,-2.8156,-2.8155,0,-2.6947,-2.6986,-2.7065,-2.7158,-2.7223,-2.73,-2.738,-2.7415,-2.7516,-2.7575,-2.7666,-2.7727,-2.7847,-2.7938,-2.8039,-2.8099,-2.8144,-2.8154,-2.8165,-2.8143,-2.8111,-2.8129,-2.8106,-2.8153,-2.8153,-2.8153,-2.8153,-2.8153,-2.6943,-2.6991,-2.7087,-2.7172,-2.7241,-2.7314,-2.7369,-2.7441,-2.7518,-2.7623,-2.7669,-2.776,-2.7853,-2.7993,-2.8052,-2.8125,-2.8136,-2.8151,-2.8154,-2.8157,-2.8152,-2.81,-2.8144,-2.8144,-2.8144,-2.8144,-2.8144,0,-2.6958,-2.7023,-2.7101,-2.721,-2.7277,-2.7314,-2.7404,-2.7458,-2.7538,-2.7621,-2.7697,-2.7801,-2.789,-2.7982,-2.8077,-2.8117,-2.8141,-2.8139,-2.8137,-2.815,-2.8137,-2.8119,-2.8119,-2.8119,-2.8119,-2.8119,-2.8119,-2.8119,-2.6974,-2.7058,-2.7108,-2.7226,-2.7292,-2.7382,-2.743,-2.7498,-2.7565,-2.7678,-2.7753,-2.7812,-2.7899,-2.8,-2.8084,-2.8109,-2.814,-2.8133,-2.8164,-2.815,-2.8151,-2.8153,-2.8136,-2.8139,-2.8139,-2.8171,-2.8171,-2.8171]},{"header":{"parameterUnit":"m.s-1","parameterCategory":1,"la1":30.2991,"la2":30.254,"lo1":-89.0895,"lo2":-89.0444,"dy":0.0017,"dx":0.0017,"nx":28,"ny":28,"refTime":"2025-03-28T09:00:00:Z","depth":0,"parameterNumber":3,"parameterNumberName":"V-component_of_WINDS"},"data":[0,0,0,0,0,0,0,0,0,0,0,0,0,0,0,0,0,0,0,0,0,0,0,0,0,0,0,0,0,0,0,0,0,0,0,0,0,0,0,0,0,0,0,0,0,0,0,0,0,0,0,0,0,0,0,0,0,0,5.6983,5.6984,0,5.7091,5.7092,5.7093,5.7068,5.7066,5.7064,5.7062,5.7167,5.7172,5.7177,0,0,0,0,0,0,0,0,0,0,0,0,0,5.675,5.6755,5.6983,5.6984,5.6985,5.7091,5.7092,5.7094,5.7068,5.7066,5.7063,5.7061,5.7166,5.7171,5.7177,0,0,0,0,0,0,0,0,0,0,0,0,0,5.6854,5.6756,5.6982,5.6986,5.6987,5.7091,5.7092,5.7094,5.7069,5.7066,5.7063,5.706,5.7164,5.7171,5.7178,5.7283,0,0,5.72,5.7203,0,0,0,0,0,0,0,0,5.6848,5.6863,5.6984,5.6986,5.6987,5.7063,5.7049,5.7157,5.707,5.7038,5.7062,5.7058,5.7135,5.7144,5.7171,5.7288,5.7293,5.72,5.7204,5.7208,5.721,0,0,0,0,0,0,0,5.6841,5.6858,5.7025,5.6986,5.6988,5.698,5.6992,5.7069,5.7102,5.704,5.7039,5.7052,5.7135,5.7164,5.7173,5.7294,5.72,5.7206,5.7211,5.7213,5.7506,5.7509,0,0,0,0,0,0,5.6833,5.6852,5.7022,5.7029,5.6909,5.6987,5.7,5.7042,5.7101,5.7107,5.7055,5.705,5.7154,5.7165,5.7177,5.7306,5.7207,5.7214,5.7218,5.7502,5.7507,5.751,0,0,0,0,0,0,5.6828,5.6849,5.7018,5.694,5.6961,5.6994,5.7042,5.7045,5.7075,5.7112,5.7117,5.7079,5.7152,5.7167,5.7258,5.7309,5.7217,5.7224,5.7498,5.7504,5.7508,5.7564,0,0,0,0,0,0,5.6822,5.6847,5.6888,5.6941,5.6965,5.7098,5.7045,5.705,5.7088,5.7083,5.7136,5.7142,5.715,5.7248,5.7265,5.7318,5.7229,5.7494,5.7501,5.7507,5.7558,5.7571,5.7582,0,0,0,0,0,5.6813,5.6898,5.689,5.6911,5.7018,5.7101,5.7115,5.7125,5.7092,5.7133,5.7158,5.714,5.7301,5.7257,5.7277,5.7332,5.749,5.7499,5.7506,5.7553,5.7568,5.7582,0,0,0,0,0,0,5.6847,5.6905,5.6897,5.7001,5.7047,5.7097,5.7149,5.714,5.7195,5.7188,5.7196,5.7208,5.7302,5.7325,5.7276,5.7438,5.7391,5.7403,5.742,5.7435,5.7446,5.7439,5.7235,0,0,0,0,0,5.6867,5.6932,5.6978,5.7065,5.7089,5.7115,5.7152,5.7156,5.7202,5.7221,5.7252,5.7297,5.7357,5.7397,5.7455,5.7561,5.7573,5.7609,5.7621,5.763,5.7641,5.7701,5.7718,5.7536,5.7536,5.7536,0,0,5.6908,5.6948,5.6988,5.7073,5.7109,5.7175,5.7131,5.7202,5.7251,5.7231,5.732,5.7345,5.7395,5.7495,5.754,5.7518,5.7694,5.764,5.7648,5.7653,5.7711,5.7728,5.7744,5.7542,5.7541,5.754,0,0,5.7018,5.7054,5.7132,5.7169,5.7225,5.7243,5.7261,5.7313,5.733,5.7419,5.7407,5.7464,5.7568,5.7605,5.7638,5.7764,5.775,5.7782,5.7844,5.7903,5.7917,5.793,5.7976,5.7993,5.7792,5.7792,5.7792,0,5.7062,5.7162,5.7172,5.7246,5.7285,5.7272,5.7351,5.7386,5.7457,5.7483,5.7457,5.759,5.7622,5.7732,5.7763,5.7789,5.7811,5.7776,5.7914,5.7927,5.7939,5.7984,5.8001,5.7796,5.7795,5.7795,5.7795,0,5.7214,5.7284,5.734,5.7412,5.7457,5.7532,5.7554,5.7597,5.7598,5.7618,5.771,5.7749,5.7816,5.7842,5.7841,5.7952,5.7937,5.7912,5.7865,5.796,5.8002,5.8019,5.7801,5.78,5.7799,5.7798,0,0,5.7347,5.7426,5.7447,5.748,5.7542,5.7595,5.767,5.7738,5.7776,5.7825,5.7889,5.7978,5.7957,5.7994,5.7998,5.8049,5.8149,5.8019,5.802,5.8043,5.8275,5.8294,5.8314,5.814,5.8143,5.8146,5.8272,0,5.7463,5.7599,5.7611,5.7732,5.7798,5.7787,5.7853,5.7897,5.7918,5.7976,5.7997,5.8062,5.8028,5.8051,5.8101,5.8126,5.8196,5.8117,5.8199,5.8202,5.8189,5.8335,5.8355,5.8472,5.8288,5.8291,5.8293,0,5.7617,5.7675,5.7803,5.7858,5.7885,5.7944,5.8009,5.8064,5.8114,5.8125,5.8168,5.8166,5.8243,5.8192,5.8299,5.8245,5.828,5.8297,5.8302,5.8311,5.8254,5.835,5.8509,5.8527,5.8318,5.8316,5.8314,0,5.7704,5.7813,5.7904,5.7933,5.7998,5.8041,5.8069,5.8117,5.8157,5.8212,5.8239,5.8301,5.8336,5.8384,5.8398,5.836,5.8505,5.8455,5.8517,5.8517,5.8549,5.8547,5.8718,5.8569,5.8569,5.8568,5.8568,0,5.7834,5.7913,5.7945,5.8001,5.809,5.8103,5.819,5.8216,5.8259,5.832,5.8313,5.837,5.8385,5.8445,5.8456,5.8544,5.8559,5.857,5.8573,5.8572,5.8571,5.8595,5.8588,5.8573,5.8572,5.8571,5.857,0,5.7946,5.797,5.807,5.8125,5.814,5.8204,5.825,5.8304,5.8324,5.8402,5.842,5.8452,5.8522,5.8541,5.8624,5.8632,5.8736,5.8729,5.872,5.872,5.8782,5.8776,5.8975,5.9003,5.8834,5.8836,5.8837,0,5.8028,5.8089,5.8152,5.8193,5.8225,5.8291,5.8333,5.8348,5.8393,5.8456,5.8502,5.8572,5.8629,5.8741,5.8771,5.8834,5.8831,5.8896,5.884,5.8838,5.8834,5.8831,5.8838,5.8907,5.8909,5.891,5.8911,0,5.8171,5.8181,5.8243,5.8311,5.8362,5.8415,5.8466,5.8499,5.8522,5.8571,5.8645,5.8689,5.8775,5.8845,5.891,5.8938,5.8929,5.8929,5.8947,5.8948,5.894,5.8947,5.875,5.8924,5.8923,5.8922,5.8921,5.8921,5.8272,5.8327,5.8381,5.8451,5.8491,5.8539,5.8594,5.8622,5.8684,5.8758,5.8762,5.8842,5.8891,5.8978,5.901,5.9072,5.9052,5.9078,5.9085,5.9091,5.9098,5.893,5.9083,5.9083,5.9083,5.9082,5.9082,0,5.8417,5.8452,5.8516,5.8589,5.8644,5.8633,5.8689,5.8735,5.8806,5.8854,5.8911,5.8996,5.9064,5.9099,5.9167,5.9209,5.9207,5.9227,5.9224,5.9232,5.911,5.9089,5.9228,5.9228,5.9228,5.9228,5.9228,5.9228,5.8499,5.8593,5.8609,5.8722,5.8755,5.8835,5.8869,5.8913,5.8952,5.9048,5.9105,5.9129,5.9172,5.9243,5.9305,5.9313,5.9339,5.9362,5.9368,5.9255,5.924,5.9226,5.9206,5.9367,5.9367,5.9485,5.9486,5.9486]}]]